Regional Weather Roundup
Issued by NWS

Home | Current Version | Previous Version | Text Only | Print | Product List | Glossary On
Versions: 1 2 3 4 5 6 7 8 9 10 11 12 13 14 15 16 17 18 19 20 21 22 23 24 25 26 27 28 29 30 31 32 33 34 35 36 37 38 39 40 41 42 43 44 45 46 47 48 49 50
264
ASUS44 KBMX 262010
RWRAL

ALABAMA REGIONAL WEATHER ROUNDUP
NATIONAL WEATHER SERVICE BIRMINGHAM AL
300 PM CDT FRI AUG 26 2016

NOTE: "FAIR" INDICATES FEW OR NO CLOUDS BELOW 12,000 FEET
WITH NO SIGNIFICANT WEATHER AND/OR OBSTRUCTIONS TO VISIBILITY.

THE REMARK "TC" DENOTES TEMPERATURE IN DEGREES CELSIUS.

ALZ001>011-014-016>018-020-262100-
NORTH ALABAMA

CITY           SKY/WX    TMP DP  RH WIND       PRES   REMARKS
MUSCLE SHOALS  MOSUNNY   96  71  44 VRB6      30.01F HX 103
HUNTSVILLE     LGT RAIN  89  72  56 N7        30.01F HX  96
DECATUR        LGT RAIN  78  71  79 NE13G26   30.02F
HALEYVILLE     TSTM      76  71  85 S7        30.06R
GADSDEN        SUNNY     93  74  53 SE3       30.01F HX 103
$$

ALZ012-013-022-023-030>036-040>044-262100-
WEST CENTRAL ALABAMA

CITY           SKY/WX    TMP DP  RH WIND       PRES   REMARKS
TUSCALOOSA     MOSUNNY   93  70  46 S12G20    29.99F HX  99
$$

ALZ015-024>027-033>036-040>044-262100-
CENTRAL ALABAMA

CITY           SKY/WX    TMP DP  RH WIND       PRES   REMARKS
BIRMINGHAM     PTSUNNY   94  70  45 SE7       30.03F HX 100
MONTGOMERY     MOSUNNY   96  64  34 E12       30.00F HX  98
SHELBY CO ARPT SUNNY     92  68  45 VRB5      30.02F HX  96
MAXWELL AFB    MOSUNNY   92  68  44 E7        29.99F HX  96
GREENVILLE     FAIR      93  65  39 E7        30.01F HX  95
$$

ALZ019-021-028-029-037-038-045>048-262100-
EAST CENTRAL ALABAMA

CITY           SKY/WX    TMP DP  RH WIND       PRES   REMARKS
ANNISTON       PTSUNNY   94  67  41 VRB3      30.01F HX  97
ALEXANDER CITY SUNNY     95  80  60 SE5       30.03F HX 113
AUBURN         PTSUNNY   89  68  49 E6        30.04F HX  93
$$

ALZ051>064-262100-
SOUTHWEST ALABAMA

CITY           SKY/WX    TMP DP  RH WIND       PRES   REMARKS
MOBILE         PTSUNNY   91  68  46 E10       30.00F HX  95
BROOKLEY FIELD SUNNY     93  69  45 SE8       30.00F HX  98
EVERGREEN      MOSUNNY   91  67  44 SE14G20   30.01F HX  94
$$

ALZ049-050-065>069-262100-
SOUTHEAST ALABAMA

CITY           SKY/WX    TMP DP  RH WIND       PRES   REMARKS
DOTHAN         MOSUNNY   91  72  53 NE9       30.04F HX  98
OZARK          SUNNY     93  68  44 E9        30.00F HX  97
TROY           MOSUNNY   91  68  46 VRB6      30.02F HX  95
EUFAULA        FAIR      97  66  36 NE9       29.99F HX 100
$$




USA.gov is the U.S. government's official web portal to all federal, state and local government web resources and services.